Regional Weather Roundup
Issued by NWS

Home | Current Version | Previous Version | Text Only | Print | Product List | Glossary Off
Versions: 1 2 3 4 5 6 7 8 9 10 11 12 13 14 15 16 17 18 19 20 21 22 23 24 25 26 27 28 29 30 31 32 33 34 35 36 37 38 39 40 41 42 43 44 45 46 47 48 49 50

824
ASUS45 KTFX 270910
RWRMT
MONTANA REGIONAL WEATHER ROUNDUP
NATIONAL WEATHER SERVICE GREAT FALLS MT
300 AM MDT FRI MAY 27 2016

NOTE: "FAIR" INDICATES FEW OR NO CLOUDS BELOW 12000 FEET WITH NO
SIGNIFICANT WEATHER AND/OR OBSTRUCTIONS TO VISIBILITY.

MTZ001>007-043-271000-
WEST OF THE DIVIDE

CITY           SKY/WX    TMP DP  RH WIND       PRES   REMARKS
KALISPELL      MOCLDY    47  47 100 CALM      29.89S
MISSOULA       LGT RAIN  49  46  90 E6        29.94S FOG
BUTTE          HVY RAIN  43  40  89 N9G18     29.99R FOG
MULLAN PASS    MOCLDY    38  34  85 W6        29.96F
ANACONDA         N/A     45  41  87 SE5       29.98R
DEER LODGE       N/A     46  43  87 SW3       29.98S
EUREKA           N/A     52  43  71 SE9       29.87F
HAMILTON         N/A     46  39  76 CALM      29.93F
LIBBY            N/A     46  43  87 CALM      29.90R
$$

MTZ008-052>055-271000-
SOUTHWEST MONTANA

CITY           SKY/WX    TMP DP  RH WIND       PRES   REMARKS
BOZEMAN        CLEAR     41  39  93 CALM      29.94R
DILLON         CLOUDY    49  40  71 W5        29.95S
W YELLOWSTONE  FOG       32  32 100 CALM      30.02S VSB 1/4
$$

MTZ009-010-012-014-046-048-049-054-271000-
EAST SLOPES AND CENTRAL MONTANA

CITY           SKY/WX    TMP DP  RH WIND       PRES   REMARKS
CUT BANK       CLOUDY    45  43  93 SW6       29.87S
GREAT FALLS    CLOUDY    45  42  89 E3        29.89F
MALMSTROM AFB  CLEAR     42  41  97 S6        29.89F
HELENA         PTCLDY    49  44  83 W9        29.91F
CHOTEAU          N/A     48  45  87 S5        29.88F
$$

MTZ011-013-016-021-045-047-050-051-271000-
NORTH CENTRAL MONTANA

CITY           SKY/WX    TMP DP  RH WIND       PRES   REMARKS
HAVRE          CLEAR     47  46  97 S5        29.87S
LEWISTOWN      CLEAR     41  37  86 SE5       29.90F
N BAR RANCH      N/A     39  37  93 W3        29.93F
CHINOOK          N/A     48  48 100 E3        29.89S
$$

MTZ017>020-022>027-061-062-271000-
NORTHEAST MONTANA

CITY           SKY/WX    TMP DP  RH WIND       PRES   REMARKS
GLASGOW        PTCLDY    48  46  93 NE8       29.85F
JORDAN           N/A     53  50  89 NE8       29.86R
SIDNEY         CLEAR     49  47  93 N5        29.87R
WOLF POINT     PTCLDY    49  46  90 CALM      29.86S
POPLAR           N/A     50  46  87 NE7       29.87R
$$

MTZ028>42-056>058-271000-
SOUTHCENTRAL AND SOUTHEAST MONTANA

CITY           SKY/WX    TMP DP  RH WIND       PRES   REMARKS
BAKER          CLEAR     42  39  89 CALM      29.87R
BILLINGS       MOCLDY    47  43  86 S8        29.91S
LIVINGSTON     CLEAR     41  38  89 W6        29.93F
MILES CITY     CLOUDY    51  47  86 W9        29.86S
FORSYTH          N/A     52  48  87 SW5       29.87F
$$

REGIONAL REPORTS...DAKOTAS

CITY           SKY/WX    TMP DP  RH WIND       PRES   REMARKS
WILLISTON      PTCLDY    48  46  93 NE7       29.87R
MINOT          CLOUDY    57  54  89 W5        29.82S
DICKINSON      CLEAR     39  37  92 W5        29.83F
BEACH          MOCLDY    41  41 100 S3        29.89R
CROSBY         CLOUDY    52  52 100 NW8       29.87S
WATFORD CITY   MOCLDY    41  41 100 CALM      29.87R FOG
BISMARCK       CLEAR     48  46  93 CALM      29.83S
GRAND FORKS    CLOUDY    54  52  93 NW5       29.78F
FARGO          CLEAR     57  53  86 E9        29.76F
BUFFALO SD       N/A     47  42  83 NW3       29.80S
RAPID CITY     MOCLDY    50  42  74 W7        29.86F
$$

REGIONAL REPORTS...WYOMING/IDAHO/WASHINGTON

CITY           SKY/WX    TMP DP  RH WIND       PRES   REMARKS
GILLETTE       CLOUDY    47  43  86 CALM      29.90F
SHERIDAN       CLOUDY    44  40  85 W5        29.91F
BUFFALO WY     CLOUDY    45  38  76 W8        29.93F
CODY           CLEAR     43  37  81 S5        29.94F
YELLOWSTONE LA   N/A     31  30  96 CALM      30.07F
IDAHO FALLS    CLEAR     49  38  65 S12       29.93S
SALMON         CLOUDY    54  37  54 CALM      29.92S
BOISE          PTCLDY    54  41  61 NW5       29.91S
SPOKANE        CLOUDY    49  39  68 SW24G30   29.90S
$$

REGIONAL REPORTS...ALBERTA

CITY           SKY/WX    TMP DP  RH WIND       PRES   REMARKS
EDMONTON       MOCLDY    50  48  93 W3        29.79S
CALGARY        MOCLDY    50  46  87 N13       29.78S
LETHBRIDGE     CLOUDY    52  43  71 SW12G17   29.81S
MEDICINE HAT   CLOUDY    57  48  72 CALM      29.83S
WATERTON GATE    N/A     48  37  66 SW12        N/A
MILK RIVER       N/A     43  41  93 S3          N/A
$$

REGIONAL REPORTS...SASKATCHEWAN

CITY           SKY/WX    TMP DP  RH WIND       PRES   REMARKS
SWIFT CURRENT  CLEAR     46  45  93 S7        29.88F
REGINA         PTCLDY    52  48  87 NW10      29.87F
SASKATOON      CLOUDY    55  52  88 W2        29.88F
CYPRESS HILLS    N/A     43  39  87 SE5         N/A
VAL MARIE        N/A     39  37  93 NE5         N/A
ROCKGLEN         N/A     48  46  93 N5          N/A
$$




USA.gov is the U.S. government's official web portal to all federal, state and local government web resources and services.